Weather in Pkhiya

Russia / Karachay-Cherkess Republic     43°35′33″N   40°56′31″E
temp.,
°C
wind,
m/s
gust,
m/s
humid.,
%
clouds,
%
prec.,
mm/h
press.,
hPa
HPBL,
m
14 may, fri
fri1400:00+6ese22370 0.0 101611
03:00+6e22390 0.0 101611
06:00+8ene22410 0.0 101712
09:00+16s23314 0.0 10151102
12:00+18ssw46313 0.0 10152450
15:00+17ssw35353 0.0 10152248
18:00+15ssw22540 0.0 101668
21:00+7se22680 0.0 101711
15 may, sat
sat1500:00+6ese1162100 0.0 101711
03:00+6ene116734 0.0 101711
06:00+9ne11550 0.0 101711
09:00+16ene11310 0.0 10151236
12:00+18sw11328 0.0 10142702
15:00+17ssw224286 0.5 10142063
18:00+13nne33685 1.3 1015185
21:00+7ene32883 1.4 101821
16 may, sun
sun1600:00+6e11774 0.0 101511
03:00+6ene1173100 0.0 101411
06:00+9ene225499 0.0 101312
09:00+16nne113190 0.0 1011858
12:00+18ssw242685 0.0 10092252
15:00+18ssw34365 0.0 10082234
18:00+16ssw225440 0.3 1008493
21:00+8ese117499 0.3 100911
17 may, mon
mon1700:00+8ese226310 0.0 100911
03:00+8sse236784 0.0 101011
06:00+10ese12715 0.0 100911
09:00+16ssw2540100 0.0 10081963
12:00+17ssw4645100 0.4 10091910
15:00+15ssw46515 0.4 10101255
18:00+12ssw33632 0.6 1011383
21:00+8se117961 1.3 101310
18 may, tue
tue1800:00+6e119467 0.6 101521
03:00+6s1197100 2.4 101552
06:00+7nnw119148 1.0 101482
09:00+10sw227971 2.9 1014543
12:00+11sw337219 1.3 1014898
15:00+11wsw227326 2.8 1014815
18:00+10n227840 0.9 1015612
21:00+7ne118969 1.0 101719